TimePST,TemperatureF,Dew PointF,Humidity,Sea Level PressureIn,VisibilityMPH,Wind Direction,Wind SpeedMPH,Gust SpeedMPH,PrecipitationIn,Events,Conditions,WindDirDegrees,DateUTC
1:51 AM,42.8,39.2,87,29.60,5.0,Calm,Calm,-,0.01,Rain,Light Rain,0,2012-12-22 09:51:00
1:53 AM,42.1,39.9,92,29.60,5.0,NNW,3.5,-,0.01,Rain,Light Rain,340,2012-12-22 09:53:00
2:53 AM,42.1,-9999,N/A,29.57,4.0,Calm,Calm,-,0.02,Rain,Light Rain,0,2012-12-22 10:53:00
3:18 AM,41.0,-9999,N/A,29.57,2.5,Calm,Calm,-,0.01,Rain,Light Rain,0,2012-12-22 11:18:00
3:34 AM,41.0,-9999,N/A,29.56,1.8,Calm,Calm,-,0.02,Rain,Light Rain,0,2012-12-22 11:34:00
4:13 AM,41.0,-9999,N/A,29.57,3.0,Calm,Calm,-,0.02,Rain,Light Rain,0,2012-12-22 12:13:00
4:44 AM,41.0,-9999,N/A,29.57,2.0,Calm,Calm,-,0.05,Rain,Rain,0,2012-12-22 12:44:00
4:53 AM,41.0,-9999,N/A,29.57,1.8,Calm,Calm,-,0.06,Rain,Rain,0,2012-12-22 12:53:00
5:02 AM,42.8,-9999,N/A,29.56,3.0,Calm,Calm,-,0.01,Rain,Light Rain,0,2012-12-22 13:02:00
5:53 AM,42.1,-9999,N/A,29.53,10.0,East,6.9,-,0.01,,Overcast,80,2012-12-22 13:53:00
6:06 AM,42.8,-9999,N/A,29.54,10.0,Calm,Calm,-,N/A,,Overcast,0,2012-12-22 14:06:00
6:13 AM,42.8,-9999,N/A,29.54,10.0,ESE,3.5,-,N/A,,Overcast,120,2012-12-22 14:13:00
6:23 AM,41.0,-9999,N/A,29.55,8.0,Calm,Calm,-,N/A,,Overcast,0,2012-12-22 14:23:00
6:32 AM,41.0,-9999,N/A,29.55,7.0,Calm,Calm,-,N/A,,Overcast,0,2012-12-22 14:32:00
6:53 AM,41.0,-9999,N/A,29.56,10.0,ESE,6.9,-,N/A,,Mostly Cloudy,120,2012-12-22 14:53:00
7:07 AM,41.0,-9999,N/A,29.55,9.0,East,4.6,-,N/A,,Mostly Cloudy,100,2012-12-22 15:07:00
7:53 AM,42.1,-9999,N/A,29.55,10.0,SSE,9.2,-,N/A,,Overcast,150,2012-12-22 15:53:00
8:53 AM,44.1,-9999,N/A,29.57,10.0,South,8.1,-,N/A,,Overcast,180,2012-12-22 16:53:00
9:53 AM,45.0,-9999,N/A,29.59,10.0,South,17.3,25.3,N/A,,Scattered Clouds,180,2012-12-22 17:53:00
10:53 AM,45.0,-9999,N/A,29.60,10.0,South,24.2,34.5,0.00,,Mostly Cloudy,180,2012-12-22 18:53:00
11:53 AM,45.0,37.0,74,29.61,10.0,South,20.7,31.1,0.00,,Mostly Cloudy,180,2012-12-22 19:53:00
12:53 PM,45.0,37.9,76,29.62,10.0,South,19.6,29.9,0.02,Rain,Light Rain,190,2012-12-22 20:53:00
1:53 PM,44.1,37.0,76,29.64,10.0,South,21.9,28.8,0.02,Rain,Light Rain,190,2012-12-22 21:53:00
2:53 PM,44.1,37.9,79,29.66,10.0,South,10.4,-,0.01,,Overcast,170,2012-12-22 22:53:00
3:53 PM,43.0,37.9,82,29.68,10.0,South,11.5,-,N/A,,Mostly Cloudy,170,2012-12-22 23:53:00
4:53 PM,43.0,37.0,80,29.70,10.0,South,12.7,-,0.01,Rain,Light Rain,170,2012-12-23 00:53:00
5:53 PM,43.0,37.0,80,29.70,10.0,South,15.0,-,0.00,Rain,Light Rain,170,2012-12-23 01:53:00
6:23 PM,42.8,37.4,81,29.70,10.0,South,13.8,-,0.01,Rain,Light Rain,170,2012-12-23 02:23:00
6:53 PM,43.0,36.0,76,29.71,10.0,South,23.0,32.2,0.01,,Overcast,180,2012-12-23 02:53:00
7:17 PM,42.8,35.6,76,29.72,10.0,South,23.0,32.2,N/A,,Scattered Clouds,180,2012-12-23 03:17:00
7:53 PM,43.0,36.0,76,29.74,10.0,South,19.6,28.8,N/A,,Overcast,180,2012-12-23 03:53:00
8:53 PM,42.1,36.0,79,29.77,10.0,South,17.3,26.5,N/A,,Overcast,180,2012-12-23 04:53:00
9:53 PM,42.1,35.1,76,29.78,10.0,South,10.4,19.6,N/A,,Clear,190,2012-12-23 05:53:00
10:53 PM,42.1,36.0,79,29.78,10.0,South,15.0,21.9,0.00,Rain,Light Rain,180,2012-12-23 06:53:00
11:53 PM,43.0,36.0,76,29.79,10.0,South,18.4,-,0.00,,Overcast,180,2012-12-23 07:53:00